| time (UTC) | temp F | wind direction | speed MPH | gust MPH | rain 1hr in | rain 24hr in | rain mn in | humidity % | barometer mb |
| 20260507230816 | 75 | 293 | 2.0 | 4.0 | 0.00 | 0.00 | 0.00 | 45 | 1014.7 |
| 20260507230316 | 75 | 0 | 1.0 | 3.0 | 0.00 | 0.00 | 0.00 | 45 | 1014.8 |
| 20260507225816 | 74 | 344 | 2.0 | 4.0 | 0.00 | 0.00 | 0.00 | 45 | 1014.8 |
| 20260507225314 | 74 | 297 | 2.0 | 4.0 | 0.00 | 0.00 | 0.00 | 45 | 1014.7 |
| 20260507224908 | 75 | 303 | 2.0 | 4.0 | 0.00 | 0.00 | 0.00 | 45 | 1014.9 |
| 20260507224852 | 74 | 317 | 2.0 | 4.0 | 0.00 | 0.00 | 0.00 | 45 | 1014.8 |
| 20260507223814 | 74 | 5 | 2.0 | 4.0 | 0.00 | 0.00 | 0.00 | 45 | 1014.9 |
| 20260507223611 | 74 | 344 | 2.0 | 5.0 | 0.00 | 0.00 | 0.00 | 45 | 1014.9 |
| 20260507222808 | 75 | 300 | 2.0 | 5.0 | 0.00 | 0.00 | 0.00 | 44 | 1014.8 |
| 20260507222306 | 75 | 355 | 2.0 | 5.0 | 0.00 | 0.00 | 0.00 | 44 | 1014.9 |
| 20260507221804 | 75 | 355 | 2.0 | 5.0 | 0.00 | 0.00 | 0.00 | 44 | 1015.0 |
| 20260507221303 | 75 | 13 | 2.0 | 5.0 | 0.00 | 0.00 | 0.00 | 44 | 1014.8 |
| 20260507220801 | 75 | 355 | 1.0 | 3.0 | 0.00 | 0.00 | 0.00 | 44 | 1014.8 |
| 20260507220302 | 75 | 33 | 2.0 | 5.0 | 0.00 | 0.00 | 0.00 | 44 | 1014.9 |
| 20260507215800 | 75 | 328 | 2.0 | 5.0 | 0.00 | 0.00 | 0.00 | 44 | 1015.1 |
| 20260507215548 | 75 | 281 | 2.0 | 6.0 | 0.00 | 0.00 | 0.00 | 43 | 1014.9 |
| 20260507214802 | 76 | 312 | 2.0 | 7.0 | 0.00 | 0.00 | 0.00 | 44 | 1015.0 |
| 20260507214300 | 76 | 306 | 3.0 | 7.0 | 0.00 | 0.00 | 0.00 | 43 | 1015.0 |
| 20260507213802 | 76 | 25 | 3.0 | 7.0 | 0.00 | 0.00 | 0.00 | 43 | 1015.0 |
| 20260507213301 | 76 | 340 | 2.0 | 7.0 | 0.00 | 0.00 | 0.00 | 43 | 1015.2 |
| 20260507213121 | 76 | 336 | 1.0 | 4.0 | 0.00 | 0.00 | 0.00 | 43 | 1015.1 |
| 20260507212306 | 76 | 284 | 2.0 | 4.0 | 0.00 | 0.00 | 0.00 | 43 | 1015.2 |
| 20260507212049 | 76 | 57 | 2.0 | 6.0 | 0.00 | 0.00 | 0.00 | 43 | 1015.3 |
| 20260507211301 | 77 | 340 | 3.0 | 6.0 | 0.00 | 0.00 | 0.00 | 42 | 1015.3 |
| 20260507210800 | 77 | 5 | 3.0 | 8.0 | 0.00 | 0.00 | 0.00 | 42 | 1015.4 |
| 20260507210301 | 78 | 290 | 2.0 | 8.0 | 0.00 | 0.00 | 0.00 | 42 | 1015.3 |
| 20260507205800 | 77 | 355 | 2.0 | 7.0 | 0.00 | 0.00 | 0.00 | 43 | 1015.3 |
| 20260507205301 | 77 | 278 | 2.0 | 5.0 | 0.00 | 0.00 | 0.00 | 44 | 1015.4 |
| 20260507204802 | 76 | 22 | 3.0 | 6.0 | 0.00 | 0.00 | 0.00 | 44 | 1015.3 |
| 20260507204555 | 77 | 321 | 3.0 | 8.0 | 0.00 | 0.00 | 0.00 | 45 | 1015.3 |
| 20260507203800 | 76 | 244 | 3.0 | 8.0 | 0.00 | 0.00 | 0.00 | 44 | 1015.4 |
| 20260507203301 | 76 | 11 | 2.0 | 8.0 | 0.00 | 0.00 | 0.00 | 43 | 1015.6 |
| 20260507202800 | 77 | 348 | 2.0 | 7.0 | 0.00 | 0.00 | 0.00 | 43 | 1015.7 |
| 20260507202255 | 77 | 32 | 3.0 | 8.0 | 0.00 | 0.00 | 0.00 | 43 | 1015.7 |
| 20260507202045 | 76 | 334 | 3.0 | 8.0 | 0.00 | 0.00 | 0.00 | 44 | 1015.7 |
| 20260507201252 | 75 | 19 | 3.0 | 8.0 | 0.00 | 0.00 | 0.00 | 44 | 1015.9 |
| 20260507200750 | 76 | 258 | 3.0 | 8.0 | 0.00 | 0.00 | 0.00 | 43 | 1016.0 |
| 20260507200251 | 76 | 319 | 3.0 | 8.0 | 0.00 | 0.00 | 0.00 | 43 | 1015.9 |
| 20260507195750 | 76 | 34 | 3.0 | 8.0 | 0.00 | 0.00 | 0.00 | 43 | 1016.0 |
| 20260507195250 | 76 | 24 | 2.0 | 6.0 | 0.00 | 0.00 | 0.00 | 44 | 1016.2 |
| 20260507194750 | 75 | 355 | 2.0 | 7.0 | 0.00 | 0.00 | 0.00 | 45 | 1016.3 |
| 20260507194248 | 75 | 317 | 4.0 | 9.0 | 0.00 | 0.00 | 0.00 | 44 | 1016.5 |
| 20260507193832 | 75 | 355 | 4.0 | 12.0 | 0.00 | 0.00 | 0.00 | 44 | 1016.5 |
| 20260507193819 | 75 | 23 | 4.0 | 12.0 | 0.00 | 0.00 | 0.00 | 45 | 1016.4 |
| 20260507192748 | 75 | 271 | 4.0 | 9.0 | 0.00 | 0.00 | 0.00 | 44 | 1016.6 |
| 20260507192346 | 74 | 259 | 3.0 | 9.0 | 0.00 | 0.00 | 0.00 | 45 | 1016.5 |
| 20260507192327 | 75 | 307 | 3.0 | 9.0 | 0.00 | 0.00 | 0.00 | 44 | 1016.5 |
| 20260507191248 | 75 | 355 | 4.0 | 13.0 | 0.00 | 0.00 | 0.00 | 43 | 1016.7 |
| 20260507190746 | 75 | 344 | 3.0 | 13.0 | 0.00 | 0.00 | 0.00 | 46 | 1016.9 |
| 20260507190543 | 74 | 0 | 3.0 | 9.0 | 0.00 | 0.00 | 0.00 | 45 | 1016.8 |
| 20260507185746 | 74 | 285 | 3.0 | 10.0 | 0.00 | 0.00 | 0.00 | 47 | 1017.0 |
| 20260507185246 | 73 | 313 | 3.0 | 13.0 | 0.00 | 0.00 | 0.00 | 47 | 1017.0 |
| 20260507184747 | 73 | 26 | 3.0 | 13.0 | 0.00 | 0.00 | 0.00 | 47 | 1017.1 |
| 20260507184246 | 73 | 76 | 2.0 | 7.0 | 0.00 | 0.00 | 0.00 | 48 | 1017.0 |
| 20260507183749 | 73 | 79 | 4.0 | 9.0 | 0.00 | 0.00 | 0.00 | 47 | 1017.1 |
| 20260507183247 | 73 | 337 | 5.0 | 11.0 | 0.00 | 0.00 | 0.00 | 47 | 1017.2 |
| 20260507182746 | 72 | 30 | 4.0 | 11.0 | 0.00 | 0.00 | 0.00 | 47 | 1017.3 |
| 20260507182558 | 72 | 288 | 3.0 | 9.0 | 0.00 | 0.00 | 0.00 | 47 | 1017.3 |
| 20260507181744 | 72 | 304 | 3.0 | 10.0 | 0.00 | 0.00 | 0.00 | 47 | 1017.3 |
| 20260507181244 | 72 | 321 | 3.0 | 10.0 | 0.00 | 0.00 | 0.00 | 47 | 1017.4 |
| 20260507180740 | 72 | 253 | 4.0 | 10.0 | 0.00 | 0.00 | 0.00 | 49 | 1017.6 |
| 20260507180538 | 72 | 5 | 4.0 | 10.0 | 0.00 | 0.00 | 0.00 | 47 | 1017.8 |
| 20260507175740 | 71 | 290 | 4.0 | 12.0 | 0.00 | 0.00 | 0.00 | 48 | 1017.8 |
| 20260507175241 | 71 | 308 | 4.0 | 12.0 | 0.00 | 0.00 | 0.00 | 48 | 1017.9 |
| 20260507174741 | 71 | 323 | 3.0 | 12.0 | 0.00 | 0.00 | 0.00 | 48 | 1018.1 |
| 20260507174534 | 71 | 55 | 3.0 | 10.0 | 0.00 | 0.00 | 0.00 | 48 | 1018.2 |
| 20260507173740 | 70 | 0 | 3.0 | 10.0 | 0.00 | 0.00 | 0.00 | 47 | 1018.3 |
| 20260507173240 | 71 | 17 | 3.0 | 10.0 | 0.00 | 0.00 | 0.00 | 48 | 1018.4 |
| 20260507173035 | 71 | 0 | 3.0 | 10.0 | 0.00 | 0.00 | 0.00 | 47 | 1018.6 |
| 20260507172238 | 71 | 304 | 2.0 | 7.0 | 0.00 | 0.00 | 0.00 | 50 | 1018.7 |
| 20260507171738 | 71 | 181 | 2.0 | 7.0 | 0.00 | 0.00 | 0.00 | 53 | 1018.9 |
| 20260507171236 | 70 | 130 | 2.0 | 8.0 | 0.00 | 0.00 | 0.00 | 51 | 1019.0 |
| 20260507171029 | 70 | 56 | 2.0 | 8.0 | 0.00 | 0.00 | 0.00 | 51 | 1019.1 |
| 20260507170222 | 69 | 225 | 3.0 | 8.0 | 0.00 | 0.00 | 0.00 | 52 | 1019.1 |
| 20260507165723 | 69 | 340 | 3.0 | 8.0 | 0.00 | 0.00 | 0.00 | 52 | 1019.2 |
| 20260507165220 | 69 | 11 | 2.0 | 6.0 | 0.00 | 0.00 | 0.00 | 53 | 1019.2 |
| 20260507164720 | 69 | 284 | 2.0 | 6.0 | 0.00 | 0.00 | 0.00 | 54 | 1019.2 |
| 20260507164221 | 69 | 346 | 2.0 | 6.0 | 0.00 | 0.00 | 0.00 | 54 | 1019.3 |
| 20260507163720 | 69 | 5 | 3.0 | 7.0 | 0.00 | 0.00 | 0.00 | 56 | 1019.3 |
| 20260507163218 | 68 | 329 | 3.0 | 7.0 | 0.00 | 0.00 | 0.00 | 55 | 1019.3 |
| 20260507162720 | 68 | 264 | 3.0 | 6.0 | 0.00 | 0.00 | 0.00 | 55 | 1019.2 |
| 20260507162223 | 68 | 355 | 2.0 | 6.0 | 0.00 | 0.00 | 0.00 | 57 | 1019.3 |
| 20260507161719 | 68 | 36 | 3.0 | 7.0 | 0.00 | 0.00 | 0.00 | 58 | 1019.4 |
| 20260507161219 | 67 | 32 | 3.0 | 8.0 | 0.00 | 0.00 | 0.00 | 57 | 1019.4 |
| 20260507160719 | 67 | 24 | 3.0 | 8.0 | 0.00 | 0.00 | 0.00 | 59 | 1019.4 |
| 20260507160219 | 66 | 15 | 4.0 | 9.0 | 0.00 | 0.00 | 0.00 | 60 | 1019.4 |
| 20260507155718 | 65 | 351 | 3.0 | 9.0 | 0.00 | 0.00 | 0.00 | 60 | 1019.4 |
| 20260507155218 | 65 | 350 | 2.0 | 7.0 | 0.00 | 0.00 | 0.00 | 62 | 1019.5 |
| 20260507155006 | 65 | 340 | 3.0 | 7.0 | 0.00 | 0.00 | 0.00 | 62 | 1019.6 |
| 20260507154504 | 65 | 5 | 4.0 | 8.0 | 0.00 | 0.01 | 0.00 | 62 | 1019.4 |
| 20260507154019 | 65 | 344 | 4.0 | 8.0 | 0.00 | 0.02 | 0.00 | 63 | 1019.4 |
| 20260507153219 | 65 | 315 | 3.0 | 8.0 | 0.00 | 0.02 | 0.00 | 62 | 1019.8 |
| 20260507152718 | 64 | 43 | 3.0 | 6.0 | 0.00 | 0.02 | 0.00 | 65 | 1019.7 |
| 20260507152219 | 64 | 14 | 3.0 | 6.0 | 0.00 | 0.02 | 0.00 | 66 | 1019.7 |
| 20260507151720 | 63 | 348 | 2.0 | 6.0 | 0.00 | 0.02 | 0.00 | 66 | 1019.9 |
| 20260507151217 | 63 | 15 | 2.0 | 4.0 | 0.00 | 0.02 | 0.00 | 68 | 1019.8 |
| 20260507150718 | 62 | 5 | 3.0 | 5.0 | 0.00 | 0.02 | 0.00 | 69 | 1019.9 |
| 20260507150218 | 62 | 11 | 3.0 | 6.0 | 0.00 | 0.02 | 0.00 | 70 | 1019.9 |
| 20260507145718 | 62 | 298 | 2.0 | 6.0 | 0.00 | 0.02 | 0.00 | 69 | 1020.0 |
| 20260507145219 | 62 | 36 | 3.0 | 6.0 | 0.00 | 0.02 | 0.00 | 71 | 1019.8 |
| 20260507144718 | 62 | 0 | 2.0 | 6.0 | 0.00 | 0.02 | 0.00 | 70 | 1020.0 |
| 20260507144223 | 62 | 27 | 2.0 | 6.0 | 0.00 | 0.02 | 0.00 | 71 | 1020.0 |
| 20260507143718 | 62 | 329 | 3.0 | 6.0 | 0.00 | 0.02 | 0.00 | 72 | 1020.0 |
| 20260507143218 | 62 | 311 | 3.0 | 9.0 | 0.00 | 0.02 | 0.00 | 75 | 1020.0 |
| 20260507142718 | 61 | 324 | 3.0 | 9.0 | 0.00 | 0.02 | 0.00 | 77 | 1019.9 |
| 20260507142516 | 61 | 300 | 2.0 | 8.0 | 0.00 | 0.02 | 0.00 | 79 | 1020.0 |
| 20260507141718 | 60 | 342 | 2.0 | 7.0 | 0.00 | 0.02 | 0.00 | 81 | 1020.1 |
| 20260507141216 | 60 | 9 | 2.0 | 5.0 | 0.00 | 0.02 | 0.00 | 84 | 1020.1 |
| 20260507140716 | 59 | 342 | 2.0 | 6.0 | 0.00 | 0.02 | 0.00 | 86 | 1020.3 |
| 20260507140217 | 58 | 12 | 2.0 | 6.0 | 0.00 | 0.02 | 0.00 | 87 | 1020.3 |
| 20260507135716 | 58 | 331 | 1.0 | 3.0 | 0.00 | 0.02 | 0.00 | 89 | 1020.3 |
| 20260507135216 | 57 | 344 | 1.0 | 3.0 | 0.00 | 0.02 | 0.00 | 90 | 1020.3 |
| 20260507134717 | 56 | 340 | 1.0 | 4.0 | 0.00 | 0.02 | 0.00 | 91 | 1020.3 |
| 20260507134216 | 56 | 330 | 2.0 | 5.0 | 0.00 | 0.02 | 0.00 | 91 | 1020.4 |
| 20260507133711 | 55 | 5 | 2.0 | 5.0 | 0.00 | 0.02 | 0.00 | 92 | 1020.5 |
| 20260507133214 | 55 | 16 | 1.0 | 4.0 | 0.00 | 0.02 | 0.00 | 93 | 1020.4 |
| 20260507132710 | 55 | 345 | 1.0 | 3.0 | 0.00 | 0.02 | 0.00 | 93 | 1020.5 |
| 20260507132210 | 55 | 349 | 1.0 | 3.0 | 0.00 | 0.02 | 0.00 | 93 | 1020.4 |
| 20260507131710 | 54 | 313 | 1.0 | 3.0 | 0.00 | 0.02 | 0.00 | 93 | 1020.4 |
| 20260507131210 | 54 | 323 | 1.0 | 2.0 | 0.00 | 0.02 | 0.00 | 93 | 1020.4 |
| 20260507130710 | 54 | 335 | 1.0 | 3.0 | 0.00 | 0.02 | 0.00 | 93 | 1020.3 |
| 20260507130210 | 54 | 11 | 1.0 | 3.0 | 0.00 | 0.02 | 0.00 | 93 | 1020.3 |
| 20260507125708 | 53 | 5 | 1.0 | 3.0 | 0.00 | 0.02 | 0.00 | 94 | 1020.3 |
| 20260507125205 | 53 | 343 | 0.0 | 2.0 | 0.00 | 0.02 | 0.00 | 94 | 1020.1 |
| 20260507124707 | 53 | 277 | 0.0 | 1.0 | 0.00 | 0.02 | 0.00 | 93 | 1020.0 |
| 20260507124206 | 52 | 277 | 0.0 | 1.0 | 0.00 | 0.02 | 0.00 | 93 | 1020.1 |
| 20260507123706 | 51 | 277 | 0.0 | 1.0 | 0.00 | 0.02 | 0.00 | 93 | 1020.2 |
| 20260507123206 | 51 | 277 | 0.0 | 0.0 | 0.00 | 0.02 | 0.00 | 93 | 1020.0 |
| 20260507123005 | 51 | 277 | 0.0 | 0.0 | 0.00 | 0.02 | 0.00 | 93 | 1020.0 |
| 20260507122207 | 51 | 277 | 0.0 | 0.0 | 0.00 | 0.02 | 0.00 | 93 | 1019.9 |
| 20260507121706 | 51 | 277 | 0.0 | 0.0 | 0.00 | 0.02 | 0.00 | 93 | 1019.8 |
| 20260507121206 | 51 | 277 | 0.0 | 0.0 | 0.00 | 0.02 | 0.00 | 93 | 1019.8 |
| 20260507120705 | 50 | 277 | 0.0 | 0.0 | 0.00 | 0.02 | 0.00 | 92 | 1019.7 |
| 20260507120205 | 50 | 277 | 0.0 | 0.0 | 0.00 | 0.02 | 0.00 | 92 | 1019.5 |
| 20260507115705 | 50 | 277 | 0.0 | 0.0 | 0.00 | 0.02 | 0.00 | 92 | 1019.6 |
| 20260507115500 | 50 | 277 | 0.0 | 0.0 | 0.00 | 0.02 | 0.00 | 92 | 1019.6 |
| 20260507114755 | 50 | 277 | 0.0 | 0.0 | 0.00 | 0.02 | 0.00 | 92 | 1019.6 |
| 20260507114205 | 50 | 277 | 0.0 | 0.0 | 0.00 | 0.02 | 0.00 | 92 | 1019.5 |
| 20260507113704 | 50 | 277 | 0.0 | 0.0 | 0.00 | 0.02 | 0.00 | 92 | 1019.5 |
| 20260507113201 | 51 | 277 | 0.0 | 0.0 | 0.00 | 0.02 | 0.00 | 92 | 1019.5 |
| 20260507112701 | 51 | 277 | 0.0 | 0.0 | 0.00 | 0.02 | 0.00 | 92 | 1019.4 |
| 20260507112202 | 51 | 277 | 0.0 | 0.0 | 0.00 | 0.02 | 0.00 | 92 | 1019.3 |
| 20260507112013 | 51 | 277 | 0.0 | 0.0 | 0.00 | 0.02 | 0.00 | 92 | 1019.3 |
| 20260507111202 | 51 | 277 | 0.0 | 0.0 | 0.00 | 0.02 | 0.00 | 92 | 1019.2 |
| 20260507110702 | 51 | 271 | 0.0 | 0.0 | 0.00 | 0.02 | 0.00 | 92 | 1019.1 |
| 20260507110202 | 51 | 281 | 0.0 | 0.0 | 0.00 | 0.02 | 0.00 | 91 | 1019.3 |
| 20260507105702 | 51 | 277 | 0.0 | 1.0 | 0.00 | 0.02 | 0.00 | 91 | 1019.2 |
| 20260507105503 | 51 | 277 | 0.0 | 1.0 | 0.00 | 0.02 | 0.00 | 91 | 1019.1 |
| 20260507104702 | 51 | 277 | 0.0 | 1.0 | 0.00 | 0.02 | 0.00 | 91 | 1019.1 |
| 20260507104202 | 51 | 277 | 0.0 | 2.0 | 0.00 | 0.02 | 0.00 | 91 | 1019.0 |
| 20260507103702 | 51 | 277 | 0.0 | 2.0 | 0.00 | 0.02 | 0.00 | 91 | 1018.9 |
| 20260507103202 | 51 | 350 | 0.0 | 0.0 | 0.00 | 0.02 | 0.00 | 91 | 1018.8 |
| 20260507103000 | 51 | 18 | 0.0 | 0.0 | 0.00 | 0.02 | 0.00 | 91 | 1018.8 |
| 20260507102201 | 51 | 18 | 0.0 | 0.0 | 0.00 | 0.02 | 0.00 | 91 | 1018.7 |
| 20260507101701 | 51 | 18 | 0.0 | 0.0 | 0.00 | 0.02 | 0.00 | 91 | 1018.6 |
| 20260507101204 | 52 | 18 | 0.0 | 0.0 | 0.00 | 0.02 | 0.00 | 90 | 1018.4 |
| 20260507100702 | 52 | 18 | 0.0 | 0.0 | 0.00 | 0.02 | 0.00 | 91 | 1018.2 |
| 20260507100202 | 52 | 18 | 0.0 | 1.0 | 0.00 | 0.02 | 0.00 | 90 | 1018.1 |
| 20260507095956 | 52 | 18 | 0.0 | 2.0 | 0.00 | 0.02 | 0.00 | 90 | 1018.1 |
| 20260507095202 | 52 | 18 | 0.0 | 2.0 | 0.00 | 0.02 | 0.00 | 90 | 1017.9 |
| 20260507094702 | 52 | 5 | 0.0 | 0.0 | 0.00 | 0.02 | 0.00 | 90 | 1017.9 |
| 20260507094201 | 52 | 5 | 0.0 | 0.0 | 0.00 | 0.02 | 0.00 | 90 | 1018.0 |
| 20260507093701 | 52 | 5 | 0.0 | 2.0 | 0.00 | 0.02 | 0.00 | 90 | 1018.1 |
| 20260507093202 | 52 | 5 | 1.0 | 2.0 | 0.00 | 0.02 | 0.00 | 90 | 1017.9 |
| 20260507092701 | 53 | 5 | 1.0 | 3.0 | 0.00 | 0.02 | 0.00 | 90 | 1017.9 |
| 20260507092201 | 53 | 5 | 1.0 | 3.0 | 0.00 | 0.02 | 0.00 | 89 | 1017.8 |
| 20260507091702 | 53 | 355 | 1.0 | 3.0 | 0.00 | 0.02 | 0.00 | 89 | 1017.8 |
| 20260507091202 | 53 | 339 | 0.0 | 2.0 | 0.00 | 0.02 | 0.00 | 89 | 1017.8 |
| 20260507090702 | 53 | 355 | 0.0 | 2.0 | 0.00 | 0.02 | 0.00 | 89 | 1017.8 |
| 20260507090202 | 53 | 355 | 0.0 | 2.0 | 0.00 | 0.02 | 0.00 | 89 | 1017.7 |
| 20260507085700 | 53 | 355 | 0.0 | 2.0 | 0.00 | 0.02 | 0.00 | 89 | 1017.8 |
| 20260507085200 | 53 | 355 | 0.0 | 2.0 | 0.00 | 0.02 | 0.00 | 88 | 1017.8 |
| 20260507084659 | 53 | 355 | 0.0 | 1.0 | 0.00 | 0.02 | 0.00 | 88 | 1017.9 |
| 20260507084201 | 53 | 355 | 0.0 | 2.0 | 0.00 | 0.02 | 0.00 | 88 | 1017.8 |
| 20260507083700 | 53 | 355 | 0.0 | 2.0 | 0.00 | 0.02 | 0.00 | 88 | 1017.8 |
| 20260507083449 | 53 | 351 | 0.0 | 1.0 | 0.00 | 0.02 | 0.00 | 88 | 1017.8 |
| 20260507082701 | 54 | 351 | 0.0 | 2.0 | 0.00 | 0.02 | 0.00 | 88 | 1017.8 |
| 20260507082156 | 54 | 351 | 1.0 | 3.0 | 0.00 | 0.02 | 0.00 | 88 | 1017.8 |
| 20260507081655 | 54 | 355 | 1.0 | 3.0 | 0.00 | 0.02 | 0.00 | 87 | 1017.7 |
| 20260507081154 | 54 | 342 | 1.0 | 2.0 | 0.00 | 0.02 | 0.00 | 87 | 1017.9 |
| 20260507080654 | 54 | 341 | 1.0 | 3.0 | 0.00 | 0.02 | 0.00 | 87 | 1017.7 |
| 20260507080153 | 54 | 348 | 1.0 | 3.0 | 0.00 | 0.02 | 0.00 | 87 | 1017.6 |
| 20260507075647 | 55 | 325 | 1.0 | 5.0 | 0.00 | 0.02 | 0.00 | 87 | 1017.6 |
| 20260507075148 | 55 | 5 | 2.0 | 5.0 | 0.00 | 0.02 | 0.00 | 87 | 1017.5 |
| 20260507074645 | 55 | 338 | 2.0 | 5.0 | 0.00 | 0.02 | 0.00 | 87 | 1017.4 |
| 20260507074146 | 55 | 11 | 2.0 | 5.0 | 0.00 | 0.02 | 0.00 | 87 | 1017.3 |
| 20260507073644 | 55 | 5 | 2.0 | 5.0 | 0.00 | 0.02 | 0.00 | 86 | 1017.3 |
| 20260507073439 | 55 | 355 | 2.0 | 4.0 | 0.00 | 0.02 | 0.00 | 86 | 1017.4 |
| 20260507072940 | 55 | 32 | 2.0 | 5.0 | 0.00 | 0.02 | 0.00 | 86 | 1017.5 |
| 20260507072142 | 55 | 10 | 2.0 | 5.0 | 0.00 | 0.02 | 0.00 | 86 | 1017.5 |
| 20260507071641 | 55 | 355 | 2.0 | 3.0 | 0.00 | 0.02 | 0.00 | 86 | 1017.5 |
| 20260507071142 | 55 | 335 | 2.0 | 3.0 | 0.00 | 0.02 | 0.00 | 85 | 1017.6 |
| 20260507070642 | 56 | 350 | 2.0 | 4.0 | 0.00 | 0.02 | 0.00 | 85 | 1017.6 |
| 20260507070141 | 56 | 18 | 2.0 | 4.0 | 0.00 | 0.02 | 0.00 | 85 | 1017.7 |
| 20260507065640 | 56 | 5 | 2.0 | 3.0 | 0.00 | 0.02 | 0.00 | 85 | 1017.6 |
| 20260507065233 | 56 | 355 | 2.0 | 3.0 | 0.00 | 0.02 | 0.00 | 84 | 1017.7 |
| 20260507065216 | 56 | 24 | 2.0 | 3.0 | 0.00 | 0.02 | 0.00 | 85 | 1017.5 |
| 20260507064131 | 56 | 11 | 1.0 | 3.0 | 0.00 | 0.02 | 0.00 | 84 | 1017.4 |
| 20260507063627 | 56 | 327 | 1.0 | 3.0 | 0.00 | 0.02 | 0.00 | 83 | 1017.4 |
| 20260507063120 | 56 | 12 | 1.0 | 3.0 | 0.00 | 0.02 | 0.00 | 83 | 1017.4 |
| 20260507062918 | 56 | 22 | 2.0 | 3.0 | 0.00 | 0.02 | 0.00 | 83 | 1017.2 |
| 20260507062120 | 56 | 14 | 1.0 | 3.0 | 0.00 | 0.02 | 0.00 | 83 | 1017.1 |
| 20260507061620 | 56 | 16 | 1.0 | 3.0 | 0.00 | 0.02 | 0.00 | 83 | 1017.2 |
| 20260507061429 | 56 | 26 | 1.0 | 4.0 | 0.00 | 0.02 | 0.00 | 82 | 1017.0 |
| 20260507060620 | 56 | 348 | 1.0 | 4.0 | 0.00 | 0.02 | 0.00 | 82 | 1017.1 |
| 20260507060120 | 56 | 29 | 1.0 | 2.0 | 0.00 | 0.02 | 0.00 | 82 | 1017.1 |
| 20260507055621 | 56 | 33 | 1.0 | 4.0 | 0.00 | 0.02 | 0.00 | 82 | 1016.9 |
| 20260507055120 | 56 | 34 | 1.0 | 4.0 | 0.00 | 0.02 | 0.00 | 82 | 1016.9 |
| 20260507054916 | 57 | 355 | 1.0 | 3.0 | 0.00 | 0.02 | 0.00 | 81 | 1016.9 |
| 20260507054119 | 57 | 32 | 1.0 | 3.0 | 0.00 | 0.02 | 0.00 | 81 | 1017.0 |
| 20260507053620 | 57 | 18 | 1.0 | 4.0 | 0.00 | 0.02 | 0.00 | 81 | 1016.8 |
| 20260507053413 | 57 | 5 | 1.0 | 4.0 | 0.00 | 0.02 | 0.00 | 80 | 1016.8 |
| 20260507052615 | 57 | 20 | 1.0 | 4.0 | 0.00 | 0.02 | 0.00 | 80 | 1016.8 |
| 20260507052110 | 57 | 13 | 1.0 | 3.0 | 0.00 | 0.02 | 0.00 | 80 | 1016.8 |
| 20260507051603 | 57 | 13 | 2.0 | 4.0 | 0.00 | 0.02 | 0.00 | 80 | 1017.0 |
| 20260507051058 | 57 | 349 | 2.0 | 4.0 | 0.00 | 0.02 | 0.00 | 79 | 1017.0 |
| 20260507050558 | 58 | 51 | 1.0 | 4.0 | 0.00 | 0.02 | 0.00 | 79 | 1017.0 |
| 20260507050058 | 58 | 340 | 1.0 | 4.0 | 0.00 | 0.02 | 0.00 | 79 | 1017.0 |
| 20260507045554 | 58 | 49 | 1.0 | 3.0 | 0.00 | 0.02 | 0.02 | 78 | 1017.0 |
| 20260507045057 | 58 | 344 | 2.0 | 5.0 | 0.00 | 0.02 | 0.02 | 78 | 1017.2 |
| 20260507044555 | 58 | 42 | 2.0 | 5.0 | 0.00 | 0.02 | 0.02 | 77 | 1017.1 |
| 20260507044055 | 58 | 34 | 2.0 | 5.0 | 0.00 | 0.02 | 0.02 | 77 | 1017.0 |
| 20260507043553 | 58 | 34 | 3.0 | 5.0 | 0.00 | 0.02 | 0.02 | 77 | 1017.1 |
| 20260507043053 | 58 | 355 | 2.0 | 5.0 | 0.00 | 0.02 | 0.02 | 76 | 1017.2 |
| 20260507042650 | 59 | 83 | 3.0 | 9.0 | 0.00 | 0.02 | 0.02 | 75 | 1017.3 |
| 20260507042631 | 59 | 348 | 2.0 | 6.0 | 0.00 | 0.02 | 0.02 | 75 | 1017.3 |
| 20260507041842 | 59 | 49 | 3.0 | 9.0 | 0.00 | 0.02 | 0.02 | 74 | 1017.3 |
| 20260507041051 | 59 | 320 | 2.0 | 8.0 | 0.00 | 0.02 | 0.02 | 74 | 1017.4 |
| 20260507040550 | 59 | 57 | 3.0 | 8.0 | 0.00 | 0.02 | 0.02 | 74 | 1017.3 |
| 20260507040049 | 59 | 355 | 4.0 | 10.0 | 0.00 | 0.02 | 0.02 | 73 | 1017.3 |
| 20260507035844 | 59 | 343 | 4.0 | 10.0 | 0.00 | 0.02 | 0.02 | 73 | 1017.4 |
| 20260507035046 | 60 | 11 | 4.0 | 8.0 | 0.00 | 0.02 | 0.02 | 73 | 1017.5 |
| 20260507034547 | 60 | 40 | 3.0 | 8.0 | 0.00 | 0.02 | 0.02 | 73 | 1017.5 |
| 20260507034051 | 60 | 30 | 3.0 | 10.0 | 0.00 | 0.02 | 0.02 | 73 | 1017.4 |
| 20260507033546 | 60 | 37 | 4.0 | 11.0 | 0.00 | 0.02 | 0.02 | 73 | 1017.3 |
| 20260507033047 | 60 | 43 | 5.0 | 11.0 | 0.00 | 0.02 | 0.02 | 73 | 1017.3 |
| 20260507032548 | 60 | 15 | 5.0 | 11.0 | 0.00 | 0.02 | 0.02 | 73 | 1017.2 |
| 20260507032049 | 60 | 311 | 4.0 | 8.0 | 0.00 | 0.02 | 0.02 | 74 | 1017.4 |
| 20260507031546 | 60 | 5 | 3.0 | 8.0 | 0.00 | 0.02 | 0.02 | 74 | 1017.4 |
| 20260507031047 | 60 | 9 | 4.0 | 8.0 | 0.00 | 0.02 | 0.02 | 74 | 1017.4 |
| 20260507030545 | 60 | 11 | 4.0 | 8.0 | 0.00 | 0.02 | 0.02 | 74 | 1017.2 |
| 20260507030045 | 60 | 10 | 4.0 | 10.0 | 0.00 | 0.02 | 0.02 | 73 | 1017.0 |
| 20260507025838 | 60 | 9 | 4.0 | 10.0 | 0.00 | 0.02 | 0.02 | 73 | 1017.0 |
| 20260507025042 | 60 | 355 | 4.0 | 9.0 | 0.00 | 0.02 | 0.02 | 73 | 1016.9 |
| 20260507024543 | 60 | 11 | 5.0 | 10.0 | 0.00 | 0.02 | 0.02 | 73 | 1016.8 |
| 20260507024036 | 60 | 11 | 5.0 | 11.0 | 0.00 | 0.02 | 0.02 | 73 | 1016.8 |
| 20260507023825 | 60 | 325 | 5.0 | 11.0 | 0.00 | 0.02 | 0.02 | 73 | 1016.8 |
| 20260507023031 | 60 | 355 | 5.0 | 11.0 | 0.00 | 0.02 | 0.02 | 73 | 1016.6 |
| 20260507022824 | 60 | 333 | 6.0 | 12.0 | 0.00 | 0.02 | 0.02 | 74 | 1016.5 |
| 20260507022029 | 61 | 338 | 6.0 | 13.0 | 0.00 | 0.02 | 0.02 | 74 | 1016.3 |
| 20260507021528 | 61 | 323 | 5.0 | 13.0 | 0.00 | 0.02 | 0.02 | 75 | 1016.3 |
| 20260507021029 | 61 | 46 | 4.0 | 9.0 | 0.00 | 0.02 | 0.02 | 76 | 1016.3 |
| 20260507020528 | 61 | 5 | 3.0 | 8.0 | 0.00 | 0.02 | 0.02 | 76 | 1016.2 |
| 20260507020029 | 61 | 355 | 2.0 | 6.0 | 0.00 | 0.02 | 0.02 | 76 | 1015.9 |
| 20260507015530 | 61 | 355 | 3.0 | 6.0 | 0.00 | 0.02 | 0.02 | 77 | 1015.8 |
| 20260507015032 | 61 | 38 | 3.0 | 9.0 | 0.00 | 0.02 | 0.02 | 76 | 1015.6 |
| 20260507014826 | 61 | 313 | 3.0 | 9.0 | 0.00 | 0.02 | 0.02 | 77 | 1015.6 |
| 20260507014029 | 61 | 32 | 2.0 | 7.0 | 0.00 | 0.02 | 0.02 | 77 | 1015.4 |
| 20260507013529 | 61 | 348 | 3.0 | 8.0 | 0.00 | 0.02 | 0.02 | 77 | 1015.2 |
| 20260507013101 | 61 | 24 | 3.0 | 8.0 | 0.00 | 0.02 | 0.02 | 77 | 1015.0 |
| 20260507012028 | 62 | 29 | 2.0 | 8.0 | 0.00 | 0.02 | 0.02 | 77 | 1014.8 |
| 20260507011528 | 62 | 347 | 3.0 | 8.0 | 0.00 | 0.02 | 0.02 | 77 | 1014.8 |
| 20260507011029 | 62 | 24 | 2.0 | 9.0 | 0.00 | 0.02 | 0.02 | 77 | 1014.8 |
| 20260507010527 | 62 | 355 | 3.0 | 9.0 | 0.00 | 0.02 | 0.02 | 77 | 1014.7 |
| 20260507010027 | 62 | 14 | 3.0 | 8.0 | 0.00 | 0.02 | 0.02 | 77 | 1014.7 |
| 20260507005527 | 62 | 302 | 3.0 | 10.0 | 0.00 | 0.02 | 0.02 | 77 | 1014.6 |
| 20260507005028 | 62 | 26 | 3.0 | 10.0 | 0.00 | 0.02 | 0.02 | 76 | 1014.6 |
| 20260507004527 | 62 | 43 | 2.0 | 7.0 | 0.00 | 0.02 | 0.02 | 76 | 1014.6 |
| 20260507004319 | 62 | 28 | 3.0 | 8.0 | 0.00 | 0.02 | 0.02 | 76 | 1014.5 |
| 20260507003526 | 62 | 11 | 3.0 | 8.0 | 0.00 | 0.02 | 0.02 | 76 | 1014.5 |
| 20260507003026 | 62 | 28 | 3.0 | 9.0 | 0.00 | 0.02 | 0.02 | 75 | 1014.4 |
| 20260507002526 | 62 | 49 | 3.0 | 9.0 | 0.00 | 0.02 | 0.02 | 75 | 1014.4 |
| 20260507002020 | 62 | 355 | 3.0 | 8.0 | 0.00 | 0.02 | 0.02 | 75 | 1014.3 |
| 20260507001514 | 62 | 51 | 3.0 | 8.0 | 0.00 | 0.02 | 0.02 | 74 | 1014.1 |
| 20260507001012 | 63 | 69 | 3.0 | 8.0 | 0.00 | 0.02 | 0.02 | 74 | 1014.2 |
| 20260507000513 | 63 | 44 | 3.0 | 8.0 | 0.00 | 0.02 | 0.02 | 74 | 1014.2 |
| 20260507000016 | 63 | 5 | 3.0 | 8.0 | 0.00 | 0.02 | 0.02 | 73 | 1013.9 |
| 20260506235514 | 63 | 355 | 3.0 | 9.0 | 0.00 | 0.02 | 0.02 | 73 | 1014.1 |
| 20260506235307 | 63 | 24 | 3.0 | 9.0 | 0.00 | 0.02 | 0.02 | 72 | 1014.0 |
| 20260506234512 | 63 | 51 | 3.0 | 9.0 | 0.00 | 0.02 | 0.02 | 72 | 1013.9 |
| 20260506234012 | 64 | 355 | 3.0 | 8.0 | 0.00 | 0.02 | 0.02 | 72 | 1013.9 |
| 20260506233511 | 64 | 350 | 4.0 | 9.0 | 0.00 | 0.02 | 0.02 | 72 | 1013.9 |
| 20260506233011 | 64 | 328 | 3.0 | 9.0 | 0.00 | 0.02 | 0.02 | 71 | 1013.8 |
| 20260506232509 | 64 | 350 | 3.0 | 8.0 | 0.00 | 0.02 | 0.02 | 71 | 1013.7 |
| 20260506232008 | 64 | 0 | 3.0 | 8.0 | 0.00 | 0.02 | 0.02 | 70 | 1013.6 |
| 20260506231509 | 64 | 355 | 3.0 | 8.0 | 0.00 | 0.02 | 0.02 | 70 | 1013.6 |
| 20260506231305 | 65 | 5 | 3.0 | 8.0 | 0.00 | 0.02 | 0.02 | 70 | 1013.6 |